Terug naar catalogus

IRIDIUM 33 DEB

LostPO
NORAD 38225·DEBRIS·🇺🇸 United States

Gelanceerd Sep 14, 1997 vanaf Baikonur Cosmodrome

Loading…

Volgende Passages (komende 24 uur)

TLE

VerouderdSource: Space-Track

Epoch: May 3, 2024, 13:13 UTC

1 38225U 97051YZ  24124.55126450  .00013309  00000-0  44027-2 0  9998
2 38225  86.3119  51.7189 0141833 195.0870 290.8770 14.32287723671670

Volg IRIDIUM 33 DEB in realtime met AllMySat

Download on the App Store